www.pogodaiklimat.ru

Погода и климат >> Архив погоды >> ОАЭ >> Абу-Даби


АРХИВ ПОГОДЫ в Абу-Даби

Время (UTC), дата Ветер
(напр.,м/с)
 
Видим.   Явления Облачность Т
(С)
Тd
(С)
f
(%)
Тe
(С)
Тes
(С)
Комфортность P
(гПа)
Po
(гПа)
Тmin
(С)
Tmax
(С)
R
(мм)
R24
(мм)
S
(см)
03 12.09 В 4 5000 м мгла 1/0
[Ci fib]
+30.8 +28.6 88 +52 +53 опасность
перегрева
1003.4 1000.6
06 12.09 Ю 3 7000 м пыль ясно +35.5 +23.4 50 +46 +57 опасность
перегрева
1004.7 1002.0 +30.7
09 12.09 СЗ 5 8000 м пыль ясно +39.4 +24.5 43 +51 +61 опасность
перегрева
1002.6 999.9
12 12.09 СЗ 7 10 км ясно +38.5 +22.1 39 +47 +48 опасность
перегрева
1001.4 998.7
15 12.09 СЗ 5 8000 м мгла ясно +34.7 +27.6 67 +54 +54 опасность
перегрева
1001.9 999.2
18 12.09 СЗ 5 10 км ясно +33.5 +28.6 76 +56 +56 опасность
перегрева
1003.1 1000.4 +40.6
21 12.09 С 3 10 км 1/1 600 м
[Sc]
+32.7 +29.1 81 +56 +56 опасность
перегрева
1002.7 999.9
00 13.09 ЮВ 4 8000 м мгла 3/3 450 м
[St]
+31.5 +28.3 83 +52 +52 опасность
перегрева
1002.7 999.9
03 13.09 Ю 3 6000 м мгла 6/6 400 м
[St]
+31.0 +27.9 84 +51 +51 опасность
перегрева
1004.3 1001.5
06 13.09 ЮЗ 3 10 км ясно +34.9 +27.3 65 +54 +64 опасность
перегрева
1005.6 1002.9 +30.5
09 13.09 З 3 10 км ясно +39.6 +22.2 37 +48 +63 опасность
перегрева
1003.8 1001.1
12 13.09 СЗ 7 10 км ясно +38.4 +20.6 36 +45 +47 опасность
перегрева
1002.2 999.5
15 13.09 С 6 10 км ясно +34.2 +28.3 71 +55 +55 опасность
перегрева
1002.9 1000.2
18 13.09 С 3 10 км ясно +32.7 +28.5 79 +55 +55 опасность
перегрева
1004.1 1001.3 +39.6
21 13.09 СВ 2 10 км ясно +31.4 +28.4 84 +53 +53 опасность
перегрева
1003.4 1000.6
00 14.09 СВ 2 8000 м мгла 3/3 420 м
[St]
+30.9 +28.9 89 +53 +53 опасность
перегрева
1003.0 1000.2
03 14.09 ЮВ 3 6000 м мгла 5/5 420 м
[St]
+31.4 +28.8 86 +54 +54 опасность
перегрева
1005.0 1002.2
06 14.09 С 2 10 км 4/0
[Ci fib]
+35.5 +28.1 66 +57 +68 опасность
перегрева
1005.9 1003.2 +30.7
09 14.09 СЗ 4 10 км 4/0
[Ci fib]
+40.2 +13.4 21 +40 +53 опасность
солнечного
удара
1004.2 1001.5
12 14.09 СЗ 5 10 км 3/0
[Ci fib]
+40.3 +12.8 20 +40 +44 очень
жарко
1002.7 1000.0
15 14.09 СЗ 5 10 км ясно +34.7 +25.7 60 +50 +50 опасность
перегрева
1003.2 1000.5
18 14.09 С 3 10 км ясно +32.9 +27.3 72 +51 +51 опасность
перегрева
1004.3 1001.5 +40.9
21 14.09 С 2 10 км ясно +31.8 +27.2 77 +50 +50 опасность
перегрева
1003.9 1001.1
00 15.09 СЗ 2 10 км ясно +30.1 +27.0 84 +48 +48 опасность
перегрева
1003.9 1001.1
03 15.09 В 3 7000 м мгла 1/0
[Ci fib]
+28.4 +26.1 87 +43 +43 опасность
перегрева
1005.6 1002.8
06 15.09 Ю 4 10 км ясно +34.0 +22.4 51 +43 +51 опасность
перегрева
1007.1 1004.3 +28.4
09 15.09 нст 3 10 км ясно +40.0 +19.1 30 +44 +61 опасность
перегрева
1005.0 1002.3
12 15.09 СЗ 6 10 км ясно +37.4 +23.8 46 +48 +51 опасность
перегрева
1003.3 1000.6
15 15.09 С 5 10 км 3/0
[Ci fib]
+35.0 +27.4 65 +54 +54 опасность
перегрева
1003.9 1001.2
18 15.09 С 4 10 км ясно +33.6 +28.2 73 +55 +55 опасность
перегрева
1005.3 1002.5 +42.2
21 15.09 СВ 3 10 км ясно +32.7 +27.8 75 +52 +52 опасность
перегрева
1004.6 1001.8
00 16.09 СВ 3 10 км ясно +30.9 +25.6 73 +45 +45 опасность
перегрева
1004.7 1001.9
03 16.09 ЮВ 6 8000 м пыль 5/0
[Ci fib]
+30.3 +21.0 58 +38 +38 очень
душно
1006.7 1003.9
06 16.09 Ю 7 7000 м пыль 4/0
[Ci fib]
+34.3 +19.9 43 +40 +44 очень
душно
1007.8 1005.0 +29.9
09 16.09 ЮВ 4 10 км 5/0
[Ci fib]
+38.6 +19.4 33 +43 +54 опасность
перегрева
1005.8 1003.1
12 16.09 нст 2 10 км 8/0
[Ci]
+40.7 +18.0 27 +44 +49 опасность
перегрева
1003.6 1000.9
15 16.09 С 6 10 км 8/0
[Ci]
+35.0 +25.4 58 +50 +50 опасность
перегрева
1003.7 1001.0
18 16.09 С 3 10 км 4/0
[Ac trans Ci fib]
+33.8 +26.0 64 +50 +50 опасность
перегрева
1005.3 1002.5 +41.0
21 16.09 СВ 2 10 км 1/0
[Ci fib]
+32.5 +26.7 72 +50 +50 опасность
перегрева
1005.1 1002.3
00 17.09 ЮВ 3 10 км 1/0
[Ci fib]
+31.5 +27.1 78 +50 +50 опасность
перегрева
1004.6 1001.8
03 17.09 ЮВ 3 9000 м мгла 1/0
[Ci fib]
+30.6 +25.8 76 +46 +46 опасность
перегрева
1006.0 1003.2
06 17.09 Ю 4 10 км ясно +35.8 +22.3 46 +45 +53 опасность
перегрева
1006.7 1004.0 +30.0
09 17.09 ЮЗ 3 10 км 3/0
[Ci fib]
+40.8 +17.4 26 +44 +57 опасность
перегрева
1004.6 1001.9
12 17.09 СЗ 7 10 км 4/0
[Ci fib]
+38.6 +22.1 39 +47 +48 опасность
перегрева
1002.3 999.6
15 17.09 СЗ 6 10 км 4/0
[Ci fib]
+35.2 +25.3 57 +50 +50 опасность
перегрева
1002.7 1000.0
18 17.09 СВ 4 10 км 6/0
[Ci]
+33.1 +27.3 72 +52 +52 опасность
перегрева
1004.4 1001.6 +41.7
21 17.09 С 2 10 км 5/0
[Ci fib]
+32.1 +27.9 79 +53 +53 опасность
перегрева
1003.7 1000.9
00 18.09 СВ 2 9000 м мгла 4/0
[Ci fib]
+30.8 +27.7 84 +50 +50 опасность
перегрева
1003.7 1000.9
03 18.09 В 3 5000 м мгла 5/0
[Ci fib]
+29.9 +27.8 89 +49 +50 опасность
перегрева
1005.5 1002.7
06 18.09 ЮВ 4 10 км 4/0
[Ci fib]
+37.1 +20.8 39 +44 +51 опасность
перегрева
1006.2 1003.5 +29.4
09 18.09 нст 2 10 км ясно +43.7 +11.0 15 +43 +62 опасность
перегрева
1004.1 1001.4
15 18.09 С 7 7000 м мгла ясно +34.0 +29.3 77 +59 +59 опасность
перегрева
1004.1 1001.4
18 18.09 С 4 4000 м мгла ясно +32.5 +29.3 83 +57 +57 опасность
перегрева
1005.7 1002.9 +44.2
21 18.09 СВ 3 2500 м дымка 3/3 150 м
[St]
+31.3 +29.1 88 +55 +55 опасность
перегрева
1004.6 1001.8
00 19.09 СВ 4 3000 м мгла ясно +29.4 +27.4 89 +47 +47 опасность
перегрева
1004.7 1001.9

 

Местоположение метеостанции Абу-Даби (ОАЭ): широта 24.43 долгота 54.65 высота над уровнем моря 27 м.

В архиве по умолчанию представлена погода в Абу-Даби за последнюю неделю. Архивные данные за месяц целиком и за предыдущие месяцы, начиная с января 2011 года, Вы можете получить, выбрав интересующий диапазон дат из раскрывающегося списка и нажав кнопку "Ввод!".


*Определитесь, кто Вы:
робот инопланетянин человек

Внимание! Время в таблицах - всемирное. Для получения местного времени необходимо прибавить поправку, которая равна 4 ч.

Смотрите также архив погоды в соседних городах и на ближайших метеорологических станциях:

Погода в Абу-Даби Батин аэропорту (ОАЭ) (19 км)
Погода в Аль-Мактум аэропорту (ОАЭ) (73 км)
Погода в Эль-Айне (ОАЭ) (98 км)
Погода в Дубае (ОАЭ) (114 км)
Погода в Эль-Бурайми (Оман) (117 км)
Погода в Шардже (ОАЭ) (133 км)
Погода на Острове Абу-Муса (Иран) (157 км)
Погода на Острове Сирри (Иран) (165 км)
Погода в Кумейре (Оман) (167 км)
Погода в Рай-эль-Хайма аэропорту (ОАЭ) (185 км)

Пояснения к столбцам:

Ветер - указаны скорость ветра в м/с - средняя за 10 мин, порывы в срок и между сроками (в фигурных скобках) и направление, откуда дует ветер: С - северный, СВ - северо-восточный, В - восточный, ЮВ - юго-восточный, Ю - южный, ЮЗ - юго-западный, З - западный, СЗ - северо-западный.
Видимость - горизонтальная дальность видимости в метрах или километрах. При видимости от 1 до 10 км при отсутствии осадков обычно наблюдается дымка, при ухудшении видимости до 1 км и менее - туман. В сухую погоду видимость может ухудшаться дымом, пылью или мглою.
Явления - указаны атмосферные явления, наблюдавшиеся в срок или в последний час перед сроком; фигурными скобками обозначены явления, наблюдавшиеся между сроками (за 1-3 часа до срока); квадратными скобками обозначены град или гололедные отложения с указанием их диаметра в мм.
Облачность - указаны через наклонную черту общая и нижняя облачность в баллах и высота нижней границы облаков в метрах; квадратными скобками обозначены формы облаков: Ci - перистые, Cs - перисто-слоистые, Cc - перисто-кучевые, Ac - высококучевые, As - высокослоистые, Sc - слоисто-кучевые, Ns - слоисто-дождевые, Cu - кучевые, Cb - кучево-дождевые. Подробнее классификацию облаков см. в Атласе облаков (PDF).
T - Температура воздуха - температура, измеренная на высоте 2 м над землей.
Td - Температура точки росы - температура, при понижении до которой содержащийся в воздухе водяной пар достигнет насыщения.
f - Относительная влажность воздуха - влажноcть воздуха, измеренная на высоте 2 м над землей.
Te - Эффективная температура - температура, которую ощущает одетый по сезону человек в тени. Характеристика душности погоды. При расчете учитывается влияние влажности воздуха и скорости ветра на теплоощущения человека.
Tes - Эффективная температура на солнце - температура, которую ощущает человек, с поправкой на солнечный нагрев. Характеристика знойности погоды. Зависит от высоты солнца над горизонтом, облачности и скорости ветра. Ночью, в пасмурную погоду, а также при ветре 12 м/с и более поправка равна нулю.
P - Атмосферное давление - приведенное к уровню моря атмосферное давление.
Po - Атмосферное давление - измеренное на уровне метеостанции атмосферное давление.
Tmin - Минимальная температура - минимум температуры воздуха на высоте 2 м над землей.
Tmax - Максимальная температура - максимум температуры воздуха на высоте 2 м над землей.
R - Количество осадков - Количество выпавших осадков за период времени, мм. При наведении курсора мыши на число - период времени, за который выпало указанное количество осадков.
R24 - Количество осадков - Количество выпавших осадков за 24 часа, мм.
S - Снежный покров - Высота снежного покрова, см. При наведении курсора мыши на число - состояние снежного покрова и степень покрытия местности в баллах.